This is the latest recevied weather packets stored in our database for station/object N4YH-13. If no packets are shown the sender has not sent any weather packets the latest 1 day(s).
| Time | Temp. | Humidity | Pressure | Rain* | Wind** | Luminosity | Snow |
|---|---|---|---|---|---|---|---|
| 1777992003 | 17.22° C | 74% | 1013.4 hPa | 0 mm | 0.89 m/s, 171° | - | - |
| 1777991884 | 16.67° C | 75% | 1013.4 hPa | 0 mm | 0.89 m/s, 171° | - | - |
| 1777991764 | 16.67° C | 76% | 1013.4 hPa | 0 mm | 0.89 m/s, 171° | - | - |
| 1777991643 | 16.11° C | 77% | 1013.3 hPa | 0 mm | 1.34 m/s, 171° | - | - |
| 1777991523 | 16.11° C | 78% | 1013.3 hPa | 0 mm | 1.34 m/s, 171° | - | - |
| 1777991403 | 15.56° C | 77% | 1013.3 hPa | 0 mm | 1.34 m/s, 170° | - | - |
| 1777991283 | 15.56° C | 77% | 1013.3 hPa | 0 mm | 1.79 m/s, 170° | - | - |
| 1777991163 | 15.56° C | 76% | 1013.3 hPa | 0 mm | 1.79 m/s, 168° | - | - |
| 1777991044 | 15.56° C | 76% | 1013.3 hPa | 0 mm | 1.34 m/s, 167° | - | - |
| 1777990924 | 15.56° C | 78% | 1013.3 hPa | 0 mm | 1.34 m/s, 166° | - | - |
| 1777990804 | 15.56° C | 77% | 1013.3 hPa | 0 mm | 1.34 m/s, 166° | - | - |
| 1777990683 | 15.56° C | 77% | 1013 hPa | 0 mm | 1.34 m/s, 166° | - | - |
| 1777990563 | 15.56° C | 77% | 1013 hPa | 0 mm | 0.89 m/s, 166° | - | - |
| 1777990443 | 15.56° C | 76% | 1013 hPa | 0 mm | 0.89 m/s, 166° | - | - |
| 1777990323 | 15.56° C | 75% | 1013 hPa | 0 mm | 0.89 m/s, 166° | - | - |
| 1777990203 | 15.56° C | 77% | 1013 hPa | 0 mm | 0.89 m/s, 165° | - | - |
| 1777990084 | 15.56° C | 75% | 1013 hPa | 0 mm | 0.89 m/s, 163° | - | - |
| 1777989964 | 15.56° C | 75% | 1013 hPa | 0 mm | 0.89 m/s, 165° | - | - |
| 1777989844 | 15.56° C | 75% | 1013 hPa | 0 mm | 0.89 m/s, 169° | - | - |
| 1777989724 | 15.56° C | 76% | 1013 hPa | 0 mm | 0.45 m/s, 172° | - | - |
| 1777989603 | 16.11° C | 75% | 1012.9 hPa | 0 mm | 0.89 m/s, 174° | - | - |
| 1777989483 | 16.11° C | 75% | 1013 hPa | 0 mm | 0.45 m/s, 178° | - | - |
| 1777989363 | 16.11° C | 74% | 1013 hPa | 0 mm | 0.45 m/s, 178° | - | - |
| 1777989244 | 16.11° C | 74% | 1013 hPa | 0 mm | 0.45 m/s, 178° | - | - |
| 1777989124 | 16.11° C | 74% | 1013 hPa | 0 mm | 0.45 m/s, 178° | - | - |
* Rain latest hour (hover to see other rain measurements)
** Current wind speed in m/s (hover to see current wind gust speed)